Location: Brookview Estates
(36.0476°N, 86.6931°W)
Time: 18:44:40
(UTC+00:00)

Sich 1 Rocket - Pass Details

Date: 30 March 2020
Orbit: 617 x 651 km, 82.5° (Epoch: 01 June)

Event Time Altitude Azimuth Distance (km) Brightness Sun altitude
Rises 10:19:19 0° 350° (N) 2,901 7.1 -15.9°
Reaches altitude 10° 10:21:33 10° 349° (N) 1,989 6.2 -15.4°
Maximum altitude 10:25:56 73° 266° (W) 650 3.4 -14.6°
Drops below altitude 10° 10:30:17 10° 181° (S) 1,973 6.0 -13.7°
Sets 10:32:30 0° 179° (S) 2,876 6.8 -13.3°
